World > North America > United States > New Jersey

Lopatcong, New Jersey Regional Weather

Lat: 40.69N, Lon: 75.17W
Wx Zone: NJZ007
Warning NWS WEATHER ALERT - (More Info. Click Here) Warning
Feedback

Lopatcong, NJ Regional Weather

Expires:201910160400;;774955
ASUS41 KPHI 160312
RWRPHI

REGIONAL WEATHER ROUNDUP
NATIONAL WEATHER SERVICE MOUNT HOLLY NJ
1100 PM EDT TUE OCT 15 2019

NOTE:  "FAIR" INDICATES FEW OR NO CLOUDS BELOW 12,000 FEET WITH NO
SIGNIFICANT WEATHER AND/OR OBSTRUCTIONS TO VISIBILITY.

 * = STATION DOES NOT REPORT PRECIPITATION (E.G. RAIN, SNOW, ETC.) 
        OR FOG.


NJZ001>014-160400-
NORTHERN NEW JERSEY
  
CITY           SKY/WX    TMP DP  RH WIND       PRES   REMARKS
SUSSEX         FAIR      41  37  86 CALM      30.07F                  
ANDOVER*         N/A     45  41  86 CALM      30.07F                  
MORRISTOWN     FAIR      39  39 100 CALM      30.08F                  
NEWARK         FAIR      56  48  74 S3        30.08F                  
TETERBORO      FAIR      54  46  74 S3        30.07S                  
CALDWELL       FAIR      50  43  77 CALM      30.09S                  
SOMERVILLE     FAIR      43  41  93 CALM      30.07S                  
ALLAIRE*       FAIR      53  48  83 SE3       30.10S                  
TOMS RIVER*    FAIR      41 N/A N/A CALM      30.09F                  

$$

SKY/WX - Weather  TMP - Temperature  DP - Dew Point  RH - Relative Humidity
WIND - Wind Direction/Speed PRES - Barometric Pressure VSB - Visibility
WCI - Wind Chill Index E13G22 Wind - East Wind 13 mph/Gusts of 22 mph